Stündliche Wetter Cavtat

Heute, 23 Januar, Samstag

Zeit Temperatur Niederschläge Wind Luftdruck Luftfeuchtigkeit
00:00 +11°C° 1.2 mm 11 m/S 747 mmHg 91%
01:00 +10°C° 1.2 mm 12 m/S 746 mmHg 89%
02:00 +10°C° 0.7 mm 12 m/S 746 mmHg 90%
03:00 +9°C° 0.7 mm 13 m/S 745 mmHg 91%
04:00 +9°C° 0.7 mm 13 m/S 745 mmHg 91%
05:00 +9°C° 1.1 mm 13 m/S 744 mmHg 92%
06:00 +9°C° 1.1 mm 13 m/S 744 mmHg 92%
07:00 +9°C° 1.1 mm 13 m/S 743 mmHg 93%
08:00 +9°C° 1.4 mm 12 m/S 743 mmHg 93%
09:00 +9°C° 1.4 mm 12 m/S 743 mmHg 93%
10:00 +9°C° 1.4 mm 11 m/S 742 mmHg 93%
11:00 +9°C° 1.4 mm 10 m/S 742 mmHg 92%
12:00 +9°C° 1.4 mm 10 m/S 742 mmHg 91%
13:00 +10°C° 1.4 mm 9 m/S 741 mmHg 90%
14:00 +10°C° 0.8 mm 8 m/S 741 mmHg 86%
15:00 +9°C° 0.8 mm 8 m/S 741 mmHg 82%
16:00 +9°C° 0.8 mm 7 m/S 741 mmHg 78%
17:00 +9°C° 0.5 mm 7 m/S 742 mmHg 80%
18:00 +7°C° 0.5 mm 8 m/S 742 mmHg 82%
19:00 +7°C° 0.5 mm 8 m/S 743 mmHg 84%
20:00 +7°C° 1 mm 8 m/S 743 mmHg 85%
21:00 +7°C° 1 mm 8 m/S 743 mmHg 86%
22:00 +7°C° 1 mm 8 m/S 742 mmHg 87%
23:00 +7°C° 1.2 mm 9 m/S 742 mmHg 86%

Morgen, 24 Januar, Sonntag

Zeit Temperatur Niederschläge Wind Luftdruck Luftfeuchtigkeit
00:00 +7°C° 1.2 mm 9 m/S 742 mmHg 86%
01:00 +7°C° 1.2 mm 10 m/S 742 mmHg 85%
02:00 +7°C° 1.3 mm 11 m/S 741 mmHg 84%
03:00 +7°C° 1.3 mm 11 m/S 741 mmHg 83%
04:00 +7°C° 1.3 mm 12 m/S 741 mmHg 82%
05:00 +7°C° 0.8 mm 11 m/S 741 mmHg 81%
06:00 +6°C° 0.8 mm 10 m/S 742 mmHg 81%
07:00 +6°C° 0.8 mm 9 m/S 742 mmHg 80%
08:00 +7°C° 0.6 mm 8 m/S 742 mmHg 80%
09:00 +8°C° 0.6 mm 7 m/S 743 mmHg 80%
10:00 +8°C° 0.6 mm 6 m/S 743 mmHg 80%
11:00 +9°C° 0.3 mm 5 m/S 742 mmHg 79%
12:00 +9°C° 0.3 mm 5 m/S 742 mmHg 78%
13:00 +10°C° 0.3 mm 4 m/S 742 mmHg 77%
14:00 +9°C° 0.5 mm 5 m/S 741 mmHg 81%
15:00 +8°C° 0.5 mm 6 m/S 741 mmHg 86%
16:00 +7°C° 0.5 mm 8 m/S 740 mmHg 91%
17:00 +7°C° 3.9 mm 8 m/S 739 mmHg 93%
18:00 +7°C° 3.9 mm 9 m/S 739 mmHg 95%
19:00 +6°C° 3.9 mm 10 m/S 738 mmHg 98%
20:00 +6°C° 3.5 mm 9 m/S 737 mmHg 98%
21:00 +7°C° 3.5 mm 9 m/S 736 mmHg 98%
22:00 +7°C° 3.5 mm 8 m/S 735 mmHg 98%
23:00 +7°C° 4.1 mm 8 m/S 735 mmHg 97%

übermorgen, 25 Januar, Montag

Zeit Temperatur Niederschläge Wind Luftdruck Luftfeuchtigkeit
00:00 +6°C° 4.1 mm 8 m/S 735 mmHg 97%
01:00 +6°C° 4.1 mm 8 m/S 735 mmHg 96%
02:00 +6°C° 0.7 mm 9 m/S 736 mmHg 96%
03:00 +5°C° 0.7 mm 9 m/S 737 mmHg 95%
04:00 +3°C° 0.7 mm 10 m/S 738 mmHg 95%
05:00 +4°C° 0.1 mm 8 m/S 739 mmHg 93%
06:00 +3°C° 0.1 mm 7 m/S 740 mmHg 91%
07:00 +3°C° 0.1 mm 5 m/S 741 mmHg 89%
08:00 +4°C° 0 mm 4 m/S 742 mmHg 84%
09:00 +5°C° 0 mm 3 m/S 742 mmHg 80%
10:00 +6°C° 0 mm 2 m/S 743 mmHg 75%
11:00 +6°C° 0.2 mm 2 m/S 743 mmHg 78%
12:00 +6°C° 0.2 mm 2 m/S 743 mmHg 81%
13:00 +6°C° 0.2 mm 2 m/S 743 mmHg 84%
14:00 +6°C° 1.2 mm 2 m/S 743 mmHg 87%
15:00 +4°C° 1.2 mm 3 m/S 743 mmHg 90%
16:00 +4°C° 1.2 mm 3 m/S 744 mmHg 94%
17:00 +3°C° 0.2 mm 3 m/S 745 mmHg 90%
18:00 +3°C° 0.2 mm 3 m/S 746 mmHg 87%
19:00 +2°C° 0.2 mm 3 m/S 747 mmHg 83%
20:00 +2°C° 0 mm 3 m/S 748 mmHg 80%
21:00 0°C° 0 mm 4 m/S 749 mmHg 77%
22:00 -1°C° 0 mm 4 m/S 750 mmHg 74%
23:00 -1°C° 0 mm 4 m/S 750 mmHg 74%

26 Januar, Dienstag

Zeit Temperatur Niederschläge Wind Luftdruck Luftfeuchtigkeit
00:00 -2°C° 0 mm 4 m/S 751 mmHg 74%
01:00 -2°C° 0 mm 4 m/S 751 mmHg 74%
02:00 -2°C° 0 mm 4 m/S 751 mmHg 73%
03:00 -2°C° 0 mm 4 m/S 751 mmHg 71%
04:00 -1°C° 0 mm 3 m/S 752 mmHg 70%
05:00 -1°C° 0 mm 3 m/S 752 mmHg 69%
06:00 -1°C° 0 mm 3 m/S 752 mmHg 68%
07:00 -1°C° 0 mm 3 m/S 753 mmHg 66%
08:00 +2°C° 0 mm 2 m/S 753 mmHg 63%
09:00 +3°C° 0 mm 2 m/S 753 mmHg 59%
10:00 +4°C° 0 mm 2 m/S 753 mmHg 55%
11:00 +5°C° 0 mm 2 m/S 753 mmHg 52%
12:00 +6°C° 0 mm 2 m/S 753 mmHg 50%
13:00 +7°C° 0 mm 2 m/S 753 mmHg 48%
14:00 +7°C° 0 mm 2 m/S 753 mmHg 51%
15:00 +6°C° 0 mm 2 m/S 753 mmHg 55%
16:00 +5°C° 0 mm 3 m/S 753 mmHg 58%
17:00 +4°C° 0 mm 3 m/S 753 mmHg 60%
18:00 +2°C° 0 mm 3 m/S 754 mmHg 61%
19:00 +1°C° 0 mm 3 m/S 754 mmHg 63%
20:00 +1°C° 0 mm 3 m/S 754 mmHg 62%
21:00 +1°C° 0 mm 3 m/S 755 mmHg 61%
22:00 +1°C° 0 mm 3 m/S 755 mmHg 60%
23:00 +2°C° 0 mm 2 m/S 755 mmHg 60%

27 Januar, Mittwoch

Zeit Temperatur Niederschläge Wind Luftdruck Luftfeuchtigkeit
00:00 +1°C° 0 mm 2 m/S 755 mmHg 59%
01:00 +1°C° 0 mm 2 m/S 755 mmHg 59%
02:00 +1°C° 0 mm 2 m/S 755 mmHg 60%
03:00 +1°C° 0 mm 2 m/S 755 mmHg 60%
04:00 0°C° 0 mm 3 m/S 754 mmHg 61%
05:00 0°C° 0 mm 3 m/S 754 mmHg 61%
06:00 0°C° 0 mm 3 m/S 754 mmHg 61%
07:00 -1°C° 0 mm 3 m/S 755 mmHg 61%
08:00 +2°C° 0 mm 2 m/S 754 mmHg 57%
09:00 +3°C° 0 mm 2 m/S 754 mmHg 53%
10:00 +5°C° 0 mm 1 m/S 754 mmHg 49%
11:00 +6°C° 0 mm 1 m/S 754 mmHg 49%
12:00 +7°C° 0 mm 1 m/S 753 mmHg 48%
13:00 +8°C° 0 mm 1 m/S 753 mmHg 48%
14:00 +7°C° 0 mm 1 m/S 753 mmHg 52%
15:00 +7°C° 0 mm 1 m/S 753 mmHg 56%
16:00 +6°C° 0 mm 1 m/S 753 mmHg 61%
17:00 +5°C° 0 mm 1 m/S 753 mmHg 61%
18:00 +4°C° 0 mm 1 m/S 753 mmHg 62%
19:00 +4°C° 0 mm 1 m/S 754 mmHg 63%
20:00 +3°C° 0 mm 1 m/S 754 mmHg 63%
21:00 +2°C° 0 mm 2 m/S 755 mmHg 63%
22:00 +2°C° 0 mm 2 m/S 755 mmHg 64%
23:00 +2°C° 0 mm 2 m/S 755 mmHg 64%

28 Januar, Donnerstag

Zeit Temperatur Niederschläge Wind Luftdruck Luftfeuchtigkeit
00:00 +2°C° 0 mm 2 m/S 755 mmHg 64%
01:00 +2°C° 0 mm 2 m/S 755 mmHg 65%
02:00 0°C° 0 mm 3 m/S 755 mmHg 65%
03:00 0°C° 0 mm 3 m/S 755 mmHg 64%
04:00 0°C° 0 mm 3 m/S 755 mmHg 64%
05:00 +2°C° 0 mm 2 m/S 756 mmHg 64%
06:00 +2°C° 0 mm 2 m/S 756 mmHg 64%
07:00 +2°C° 0 mm 2 m/S 756 mmHg 64%
08:00 +5°C° 0 mm 1 m/S 756 mmHg 62%
09:00 +6°C° 0 mm 1 m/S 756 mmHg 60%
10:00 +8°C° 0 mm 1 m/S 756 mmHg 59%
11:00 +8°C° 0 mm 1 m/S 755 mmHg 60%
12:00 +9°C° 0 mm 1 m/S 755 mmHg 61%
13:00 +9°C° 0 mm 1 m/S 754 mmHg 62%
14:00 +9°C° 0 mm 1 m/S 754 mmHg 67%
15:00 +8°C° 0 mm 1 m/S 754 mmHg 72%
16:00 +7°C° 0 mm 1 m/S 754 mmHg 77%
17:00 +7°C° 0 mm 1 m/S 754 mmHg 78%
18:00 +5°C° 0 mm 2 m/S 754 mmHg 79%
19:00 +5°C° 0 mm 2 m/S 754 mmHg 81%
Mehr zeigen

Wir brauchen deine Erlaubnis

Meteoprog und unser Service Anbieter werden persönliche Daten aufbewahren, so wie Cookies, Geräte Bezeichnung oder ähnliche Technologien von deinem Gerät und Prozess, so wie Persönliche Daten Inhalte und Werbungen, genauso wie social Media und den Verkehr zu analysieren.

  • Aufbewahrung und/oder Zugang zu deiner Geräte Informationen.

    Cookies, Geräte Bezeichnung oder andere Informationen, können aufbewahrt oder Zugang zu deinem Gerät erhalten, für den Grund, der oben angegeben wird.

  • Personalisierte Werbung und Inhalte, Messungen, Einblick in das Publikum und Produkt Entwicklung.

    Werbungen und Inhalte können personalisiert werden, basierend auf ein Profil. Mehr Daten können besser personalisierte Werbungen und Inhalte hinzufügen. Werbung und Inhalte können gezeigt und gemessen werden. Einblicke über das Publikum, welche die Werbung gesehen haben und den Inhalt, können abgeleitet werden. So wie Daten können genutzt werden, um es zu verbessern oder die Benutzer Erfahrung zu verbessern das System und die Software.

Wenn du “Ich stimme zu” klickst, erlaubst du uns, die Cookies zu benutzen die Geräte Bezeichnung, den Web oder ähnliche Technologien zu benutzen. Deine Settings, können in deinem Gerät bei deinem Browser geändert werden.

Für den bestimmten Zweck, berechtigten Interessen beruhen darauf, mehr als auf den Inhalt. Du kannst mehr darüber in unseren Privaten und Cookie Politik lesen.